This is the latest recevied weather packets stored in our database for station/object NC4M. If no packets are shown the sender has not sent any weather packets the latest 10 day(s).
| Time | Temp. | Humidity | Pressure | Rain* | Wind** | Luminosity | Snow |
|---|---|---|---|---|---|---|---|
| 1777378441 | 11.11° C | 89% | 1015.6 hPa | 0 mm | - | 22 W/m² | - |
| 1777378135 | 11.11° C | 91% | 1015.5 hPa | 0 mm | - | 21 W/m² | - |
| 1777377830 | 11.11° C | 91% | 1015.3 hPa | 0 mm | - | 19 W/m² | - |
| 1777377529 | 10.56° C | 92% | 1015.3 hPa | 0 mm | - | 18 W/m² | - |
| 1777377224 | 10.56° C | 91% | 1015.4 hPa | 0 mm | - | 16 W/m² | - |
| 1777376923 | 10.56° C | 91% | 1015.2 hPa | 0 mm | - | 15 W/m² | - |
| 1777376619 | 10.56° C | 91% | 1015.4 hPa | 0 mm | - | 13 W/m² | - |
| 1777376317 | 10.56° C | 90% | 1015.2 hPa | 0 mm | - | 11 W/m² | - |
| 1777376017 | 11.11° C | 90% | 1015.1 hPa | 0 mm | - | 9 W/m² | - |
| 1777375716 | 11.11° C | 89% | 1015.2 hPa | 0 mm | - | 7 W/m² | - |
| 1777375412 | 11.11° C | 88% | 1015.2 hPa | 0 mm | - | 5 W/m² | - |
| 1777375109 | 11.67° C | 88% | 1015.1 hPa | 0 mm | - | 3 W/m² | - |
| 1777374808 | 11.67° C | 87% | 1015 hPa | 0 mm | - | 2 W/m² | - |
| 1777374505 | 11.67° C | 86% | 1014.9 hPa | 0 mm | - | 1 W/m² | - |
| 1777374202 | 11.67° C | 85% | 1015.1 hPa | 0 mm | - | 0 W/m² | - |
| 1777373898 | 12.22° C | 85% | 1015.1 hPa | 0 mm | - | 0 W/m² | - |
| 1777373595 | 12.22° C | 84% | 1014.8 hPa | 0 mm | - | 0 W/m² | - |
| 1777373291 | 12.22° C | 85% | 1014.7 hPa | 0 mm | - | 0 W/m² | - |
| 1777372987 | 12.22° C | 86% | 1014.8 hPa | 0 mm | - | 0 W/m² | - |
| 1777372682 | 12.78° C | 85% | 1014.7 hPa | 0 mm | - | 0 W/m² | - |
| 1777372381 | 12.78° C | 85% | 1014.9 hPa | 0 mm | - | 0 W/m² | - |
| 1777372080 | 12.78° C | 85% | 1015.1 hPa | 0 mm | - | 0 W/m² | - |
| 1777371776 | 12.78° C | 85% | 1015.1 hPa | 0 mm | - | 0 W/m² | - |
| 1777371473 | 12.78° C | 85% | 1014.9 hPa | 0 mm | - | 0 W/m² | - |
| 1777371169 | 12.78° C | 85% | 1014.8 hPa | 0 mm | - | 0 W/m² | - |
* Rain latest hour (hover to see other rain measurements)
** Current wind speed in m/s (hover to see current wind gust speed)